AirNav   ATP
 
 376 users online  

KNRS Imperial Beach Naval Outlying Field (Ream Field)
Imperial Beach, California, USA

GOING TO IMPERIAL BEACH?


FAA INFORMATION EFFECTIVE 06 DECEMBER 2018

Location

FAA Identifier: NRS
Lat/Long: 32-33-58.1638N / 117-06-48.6837W
32-33.969397N / 117-06.811395W
32.5661566 / -117.1135233
(estimated)
Elevation: 23.6 ft. / 7.2 m (surveyed)
Variation: 11E (2020)
From city: 1 mile S of IMPERIAL BEACH, CA
Time zone: UTC -8 (UTC -7 during Daylight Saving Time)
Zip code: 91932

Airport Operations

Airport use: Private use. Permission required prior to landing
Activation date: 02/1944
Control tower: yes
ARTCC: LOS ANGELES CENTER
FSS: SAN DIEGO FLIGHT SERVICE STATION
FSS-SAN DIEGO SAN-NOTAM NRS
NOTAMs facility: SAN (NOTAM-D service available)
Attendance: 
OPR 1600-0630Z MON-THU (1500-0600Z DT) AND 1600-0200Z++ FRI. CLSD FR 0200Z++ DAY PRIOR TIL 1600Z++ DAY FLW GOVT HOL; EXC PRE-COORD FLT OF OPR NECESSITY. CTC NOLF ATC DSN 577-9414/9415 FOR OPR INQUIRIES.
Segmented circle: no
Lights: AVBL ONLY DURING HRS OF OPERATION.
Beacon: white-white-green (lighted military airport)
Operates sunset to sunrise.

Airport Communications

ATIS: 276.2
WX ASOS: PHONE 619-437-9890
IMPERIAL BEACH GROUND: 285.575 [1600-0630Z MON-THU (1500-0600Z DT) AND 1600-0200Z++ FRI. CLSD FR 0200Z++ DAY PRIOR TIL 1600Z++ DAY FLW GOVT HOL.]
IMPERIAL BEACH TOWER: 120.65 239.25 [1600-0630Z MON-THU (1500-0600Z DT) AND 1600-0200Z++ FRI. CLSD FR 0200Z++ DAY PRIOR TIL 1600Z++ DAY FLW GOVT HOL.]
SOCAL APPROACH: 125.15
SOCAL DEPARTURE: 125.15
EMERG: 243.0
RADAR: 318.8
WX ASOS at SDM (7 nm E): 132.35 (619-661-8297)
WX ASOS at SAN (11 nm N): PHONE 619-296-8934
WX ASOS at MYF (15 nm N): 126.9 (858-576-4337)
WX AWOS-3P at SEE (17 nm NE): 125.45 (619-449-1228)
  • ATCT/GCA/ATIS OPR PUBLISHED HRS EXC PRE-COORD FLT OF OPR NECESSITY.
  • FOR CLNC DEL WHEN ATCT CLSD CALL SOCAL APCH (800) 448-3724.
  • ILS/RADAR - RADAR - SEE TERMINAL FLIP FOR RADAR MINIMA.

Nearby radio navigation aids

VOR radial/distance  VOR name  Freq  Var
PGYr235/7.3POGGI VORTAC109.8014E
TIJr267/8.2TIJUANA VOR/DME116.5014E
MZBr141/14.1MISSION BAY VORTAC117.8015E

Airport Services

Runway Information

Runway 8/26

Dimensions: 2240 x 151 ft. / 683 x 46 m
Surface: concrete
Weight bearing capacity: 
PCN 6 /R/C/W/T
RUNWAY 8  RUNWAY 26
Latitude: 32-34.018072N32-33.921433N
Longitude: 117-06.827898W117-06.406738W
Elevation: 23.5 ft.21.2 ft.
Traffic pattern: leftleft
Touchdown point: yes, no lightsyes, no lights

Runway 9/27

Dimensions: 4997 x 336 ft. / 1523 x 102 m
Surface: PEM
Weight bearing capacity: 
PCN 8 /F/A/W/T
Runway edge lights: high intensity
RUNWAY 9  RUNWAY 27
Latitude: 32-34.076683N32-33.861790N
Longitude: 117-07.368155W117-06.428677W
Elevation: 8.2 ft.19.8 ft.
Traffic pattern: leftleft
Touchdown point: yes, no lightsyes, no lights

Airport Ownership and Management from official FAA records

Ownership: U.S. Navy
Owner: US NAVY
OCEANOGRAPHIC OFC - CODE 3142
WASHINGTON, DC 20373

Additional Remarks

RSTD - OFFL BUS ONLY - PPR F/W AND NON-TENANT ACFT, CTC NASNI ODO DSN 735-8233/8234, C619-545-8233/8234. NORTH ISLAND TENANT ACFT AND COAST GUARD HAVE PRIORITY FOR LCL PAT OPR.
CAUTION: EXTV COPTER TRNG.
MISC: RWY 08-26 AVBL FOR DAY AND NGT COPTER USE ONLY (NGT AND SVFR USE AT PILOTS OWN RISK).
FUEL: J5 (AVAILABLE 1100-2100 MON-THU; 1000-1800 FRI).

Instrument Procedures

NOTE: All procedures below are presented as PDF files. If you need a reader for these files, you should download the free Adobe Reader.

NOT FOR NAVIGATION. Please procure official charts for flight.
FAA instrument procedures published for use from 6 December 2018 at 0901Z to 3 January 2019 at 0900Z.

 
IAPs - Instrument Approach Procedures
COPTER TACAN RWY 27   download (96KB)
NOTE: Special Take-Off Minimums/Departure Procedures apply   download (174KB)

Other nearby airports with instrument procedures:

KSDM - Brown Field Municipal Airport (7 nm E)
KNZY - North Island Naval Air Station (Halsey Field) (9 nm NW)
KSAN - San Diego International Airport (11 nm N)
KMYF - Montgomery-Gibbs Executive Airport (15 nm N)
KSEE - Gillespie Field Airport (17 nm NE)
KNKX - Miramar MCAS (Joe Foss Field) Airport (18 nm N)
 
Loc | Ops | Rwys | IFR | FBO | Links
Com | Nav | Svcs | Stats | Notes


 
Area around KNRS (Imperial Beach Naval Outlying Field (Ream Field))
 
Road maps at: MapQuest Bing Google
 
Aerial photo
WARNING: Photo may not be current or correct
Aerial photo of KNRS (Imperial Beach Naval Outlying Field (Ream Field))
Taken in November 2008

Do you have a better or more recent aerial photo of Imperial Beach Naval Outlying Field (Ream Field) that you would like to share? If so, please send us your photo.

 
Sectional chart

 
Airport distance calculator
Flying to Imperial Beach Naval Outlying Field (Ream Field)? Find the distance to fly.

From to KNRS

Sunrise and sunset
Times for 17-Dec-2018
 Local
(UTC-8)
 Zulu
(UTC)
Morning civil twilight06:1814:18
Sunrise06:4514:45
Sunset16:4400:44
Evening civil twilight17:1101:11

Current date and time
Zulu (UTC)  17-Dec-2018 10:19:40
Local (UTC-8)  17-Dec-2018 02:19:40
 
METAR
KNRS 170956Z AUTO 10005KT 5SM BR OVC019 12/11 A3016 RMK AO2 SLP213 T01170106 $
KSDM 
6nm E 
170953Z AUTO 07006KT 5SM BR BKN012 12/11 A3015 RMK AO2 SLP209 T01170111
MMTJ 
8nm E 
170942Z 00000KT 5SM OVC010 13/12 A3018 RMK 8/6// HZY
KNZY 
10nm NW 
170952Z AUTO 00000KT 6SM HZ BKN020 14/12 A3015 RMK AO2 SLP208 T01440117 PNO $
KSAN 
11nm N 
170951Z 00000KT 9SM BKN018 BKN200 14/12 A3017 RMK AO2 SLP215 T01390117
KMYF 
15nm N 
170953Z AUTO 00000KT 5SM BR BKN014 12/11 A3016 RMK AO2 SLP210 T01170111
KSEE 
17nm NE 
170955Z AUTO 00000KT 2SM BR FEW002 FEW006 OVC011 11/11 A3015 RMK AO2
KNKX 
18nm N 
170955Z 08005KT 7SM FEW013 12/08 A3015 RMK AO2 SLP205 T01170083
TAF
MMTJ 
8nm E 
170801Z 1708/1812 02003KT 5SM HZ OVC010 TX20/1721Z TN09/1712Z TEMPO 1710/1714 2 1/2SM BR FM171800 32012KT P6SM SCT030 BKN250 FM180600 30005KT P6SM SCT020 BECMG 1808/1810 BKN020
KNZY 
10nm NW 
1707/1807 VRB06KT 9000 BR SCT010 SCT200 BKN250 641407 541409 542309 QNH3007INS TEMPO 1709/1715 8000 BR BKN015 OVC025 FM171900 VRB06KT 9999 FEW015 SCT150 BKN200 600000 540909 541809 QNH3008INS TEMPO 1719/1801 9000 BR BKN015 BKN150 BKN250 FM180100 VRB06KT 9999 VCSH BKN014 BKN150 BKN250 540909 541809 QNH3011INS TEMPO 1803/1807 9000 -RA BKN008 OVC025 T12/1714Z T18/1721Z FS30108
KSAN 
11nm N 
170535Z 1706/1812 05006KT P6SM FEW012 SCT200 FM170800 VRB04KT P6SM BKN012 FM171700 VRB04KT P6SM SCT020 SCT050 FM172100 29008KT P6SM BKN050 FM180000 VRB04KT P6SM BKN050 FM180600 VRB03KT P6SM BKN025
KNKX 
18nm N 
1703/1803 VRB06KT 9999 FEW250 QNH3012INS T11/1713Z T20/1721Z
NOTAMs
Click for the latest NOTAMs
NOTAMs are issued by the DoD/FAA and will open in a separate window not controlled by AirNav.

 

 
 

Would you like to see your business listed on this page?

 If your business provides an interesting product or service to pilots, flight crews, aircraft, or users of the Imperial Beach Naval Outlying Field (Ream Field), you should consider listing it here.  To start the listing process, click on the button below
 
Add a business
 

Other Pages about Imperial Beach Naval Outlying Field (Ream Field)

Update a link
 
Copyright © AirNav, LLC. All rights reserved. Privacy Policy  Contact